[[{"header":{"parameterUnit":"m.s-1","parameterCategory":1,"la1":30.2991,"la2":30.254,"lo1":-89.0895,"lo2":-89.0444,"dy":0.0017,"dx":0.0017,"nx":28,"ny":28,"refTime":"2024-10-13T03:00:00:Z","depth":0,"parameterNumber":2,"parameterNumberName":"U-component_of_WINDS"},"data":[0,0,0,0,0,0,0,0,0,0,0,0,0,0,0,0,0,0,0,0,0,0,0,0,0,0,0,0,0,0,0,0,0,0,0,0,0,0,0,0,0,0,0,0,0,0,0,0,0,0,0,0,0,0,0,0,0,0,0.3073,0.3073,0,0.3093,0.3093,0.3093,0.3109,0.3109,0.3109,0.3109,0.313,0.313,0.3131,0,0,0,0,0,0,0,0,0,0,0,0,0,0.3047,0.3048,0.3073,0.3073,0.3074,0.3093,0.3093,0.3093,0.3109,0.3109,0.3109,0.3109,0.313,0.313,0.3131,0,0,0,0,0,0,0,0,0,0,0,0,0,0.3062,0.3048,0.3073,0.3084,0.3085,0.3093,0.3093,0.3094,0.3109,0.3109,0.3109,0.3109,0.313,0.313,0.3131,0.313,0,0,0.3133,0.3133,0,0,0,0,0,0,0,0,0.3061,0.3063,0.3082,0.3083,0.3084,0.3099,0.3092,0.3106,0.3109,0.31,0.3109,0.311,0.3119,0.3121,0.3124,0.3131,0.3132,0.3133,0.3133,0.3133,0.3134,0,0,0,0,0,0,0,0.306,0.3062,0.3081,0.3082,0.3084,0.3087,0.3089,0.3094,0.3108,0.3101,0.3102,0.3104,0.312,0.3123,0.3125,0.3132,0.3133,0.3133,0.3134,0.3134,0.3138,0.3138,0,0,0,0,0,0,0.3057,0.3061,0.308,0.3082,0.3073,0.3087,0.309,0.3094,0.3108,0.311,0.3104,0.3104,0.3122,0.3124,0.3125,0.3125,0.3133,0.3134,0.3134,0.3138,0.3138,0.3137,0,0,0,0,0,0,0.3057,0.3059,0.308,0.3072,0.3075,0.3087,0.3092,0.3094,0.3098,0.311,0.3113,0.3105,0.3123,0.3125,0.3128,0.3125,0.3134,0.3135,0.3138,0.3138,0.3138,0.3123,0,0,0,0,0,0,0.3056,0.3059,0.3059,0.3072,0.3075,0.3083,0.3092,0.3094,0.3099,0.31,0.3112,0.3114,0.3123,0.3127,0.3129,0.3126,0.3135,0.3139,0.3138,0.3138,0.3124,0.3122,0.3121,0,0,0,0,0,0.3055,0.3055,0.3059,0.3061,0.3076,0.3082,0.3084,0.3094,0.3098,0.3098,0.3106,0.3114,0.3125,0.3128,0.313,0.3127,0.3139,0.3138,0.3138,0.3125,0.3123,0.3121,0,0,0,0,0,0,0.3042,0.3057,0.3062,0.3065,0.3072,0.3085,0.3086,0.3092,0.3098,0.3099,0.3111,0.3114,0.3116,0.3122,0.3124,0.3126,0.3133,0.3133,0.3122,0.3121,0.3119,0.3118,0.3136,0,0,0,0,0,0.304,0.3044,0.3057,0.3059,0.3062,0.3073,0.3076,0.3083,0.3091,0.3094,0.3102,0.311,0.3115,0.3118,0.3124,0.3125,0.3127,0.3124,0.3122,0.3121,0.3121,0.312,0.3119,0.3135,0.3135,0.3135,0,0,0.3035,0.3043,0.3046,0.3056,0.3063,0.3066,0.3076,0.308,0.3082,0.3095,0.3099,0.3105,0.3114,0.3116,0.3117,0.3121,0.3116,0.312,0.3119,0.312,0.3119,0.3118,0.3116,0.3135,0.3135,0.3135,0,0,0.3028,0.3035,0.3037,0.3043,0.3052,0.3059,0.3059,0.307,0.3074,0.3078,0.3087,0.309,0.3099,0.3105,0.3109,0.3101,0.3108,0.3103,0.3095,0.3094,0.3093,0.3092,0.3088,0.3087,0.3102,0.3102,0.3102,0,0.3021,0.3027,0.3037,0.304,0.3044,0.3054,0.3056,0.3061,0.3071,0.3073,0.3077,0.3087,0.3094,0.3097,0.3095,0.3098,0.3098,0.3102,0.3092,0.3091,0.309,0.3087,0.3086,0.3101,0.3101,0.3102,0.3102,0,0.3018,0.3022,0.3022,0.3031,0.3035,0.3037,0.3046,0.3049,0.3055,0.3061,0.3064,0.3072,0.3078,0.3079,0.3086,0.3082,0.3084,0.309,0.3097,0.3088,0.3085,0.3084,0.31,0.3101,0.3101,0.3101,0,0,0.3005,0.3018,0.3018,0.3021,0.3031,0.3034,0.3036,0.3042,0.3043,0.3049,0.3051,0.3057,0.3061,0.3066,0.3072,0.3072,0.3064,0.3077,0.3078,0.3074,0.3059,0.3055,0.3053,0.3068,0.3068,0.3068,0.3058,0,0.2999,0.3004,0.3011,0.3013,0.3016,0.3025,0.3026,0.3032,0.3037,0.304,0.3046,0.305,0.3056,0.3058,0.3058,0.3065,0.3061,0.3065,0.3069,0.3069,0.3066,0.3052,0.3048,0.3039,0.3057,0.3057,0.3057,0,0.2994,0.2998,0.3,0.3008,0.3009,0.301,0.3015,0.3018,0.3024,0.3028,0.3032,0.3038,0.304,0.3046,0.3047,0.305,0.3052,0.3055,0.3055,0.3056,0.3062,0.3052,0.3036,0.3034,0.3055,0.3055,0.3056,0,0.2983,0.299,0.2991,0.2994,0.3003,0.3004,0.3008,0.3014,0.3016,0.302,0.3022,0.3026,0.3028,0.3031,0.3038,0.3042,0.3039,0.3046,0.3042,0.3041,0.3041,0.3041,0.3025,0.3042,0.3042,0.3042,0.3042,0,0.2976,0.2977,0.2987,0.2988,0.2988,0.2996,0.2996,0.3,0.3005,0.3006,0.3014,0.3015,0.3025,0.3027,0.3032,0.3032,0.3033,0.3036,0.3037,0.3035,0.3035,0.3036,0.3037,0.3042,0.3042,0.3042,0.3042,0,0.2965,0.2972,0.2974,0.2982,0.2984,0.2983,0.299,0.299,0.2995,0.2997,0.2997,0.3005,0.3008,0.3015,0.3019,0.3023,0.3021,0.3024,0.3019,0.302,0.3014,0.3015,0.2999,0.2997,0.3016,0.3016,0.3015,0,0.2961,0.2961,0.2968,0.2969,0.2972,0.2974,0.2976,0.2984,0.2985,0.2991,0.299,0.2993,0.2996,0.2999,0.3005,0.3008,0.3011,0.3005,0.3011,0.3008,0.301,0.3009,0.3009,0.3003,0.3003,0.3003,0.3003,0,0.2951,0.2954,0.2956,0.2959,0.2961,0.2964,0.2968,0.2968,0.2976,0.2977,0.2979,0.2981,0.2984,0.2987,0.299,0.2994,0.2999,0.3,0.3,0.2997,0.2994,0.2995,0.3014,0.3001,0.3001,0.3001,0.3001,0.3002,0.2943,0.2943,0.2947,0.2949,0.2952,0.2954,0.2955,0.2959,0.2961,0.2964,0.2968,0.2969,0.2973,0.2978,0.2981,0.2981,0.2985,0.2983,0.2983,0.2983,0.2981,0.2994,0.2982,0.2982,0.2982,0.2982,0.2982,0,0.2933,0.2936,0.2937,0.2941,0.2942,0.2947,0.295,0.295,0.2951,0.2954,0.2956,0.2957,0.2959,0.2964,0.2966,0.2965,0.2968,0.2965,0.2966,0.2966,0.2978,0.2979,0.2963,0.2963,0.2963,0.2963,0.2963,0.2963,0.2928,0.2928,0.2931,0.2931,0.2934,0.2935,0.2936,0.2938,0.294,0.2941,0.2942,0.2945,0.2949,0.295,0.2951,0.2953,0.2953,0.295,0.2952,0.2964,0.2965,0.2967,0.2967,0.295,0.295,0.2939,0.2939,0.2939]},{"header":{"parameterUnit":"m.s-1","parameterCategory":1,"la1":30.2991,"la2":30.254,"lo1":-89.0895,"lo2":-89.0444,"dy":0.0017,"dx":0.0017,"nx":28,"ny":28,"refTime":"2024-10-13T03:00:00:Z","depth":0,"parameterNumber":3,"parameterNumberName":"V-component_of_WINDS"},"data":[0,0,0,0,0,0,0,0,0,0,0,0,0,0,0,0,0,0,0,0,0,0,0,0,0,0,0,0,0,0,0,0,0,0,0,0,0,0,0,0,0,0,0,0,0,0,0,0,0,0,0,0,0,0,0,0,0,0,1.9784,1.9783,0,1.9718,1.9717,1.9716,1.9674,1.9674,1.9674,1.9674,1.9603,1.9601,1.9599,0,0,0,0,0,0,0,0,0,0,0,0,0,1.9872,1.987,1.9784,1.9783,1.9783,1.9718,1.9717,1.9716,1.9674,1.9674,1.9674,1.9674,1.9603,1.9601,1.9599,0,0,0,0,0,0,0,0,0,0,0,0,0,1.9822,1.987,1.9784,1.9754,1.9751,1.9718,1.9717,1.9716,1.9674,1.9674,1.9674,1.9673,1.9604,1.9601,1.9599,1.959,0,0,1.9591,1.959,0,0,0,0,0,0,0,0,1.9825,1.9819,1.9759,1.9756,1.9752,1.9704,1.9722,1.9674,1.9674,1.9703,1.9674,1.9673,1.9636,1.9631,1.9619,1.9587,1.9584,1.9591,1.959,1.9588,1.9588,0,0,0,0,0,0,0,1.9829,1.9822,1.9758,1.9758,1.9754,1.9743,1.9735,1.9712,1.9672,1.9701,1.9698,1.969,1.9634,1.9622,1.9617,1.9583,1.9591,1.9589,1.9587,1.9586,1.954,1.954,0,0,0,0,0,0,1.9837,1.9825,1.976,1.9756,1.9789,1.9741,1.9733,1.972,1.9673,1.9665,1.9691,1.9689,1.9626,1.962,1.9615,1.9602,1.9588,1.9586,1.9585,1.954,1.954,1.954,0,0,0,0,0,0,1.9839,1.9832,1.9763,1.9789,1.978,1.974,1.9726,1.9719,1.9706,1.9665,1.9658,1.9686,1.9626,1.9618,1.9597,1.9599,1.9585,1.9583,1.9539,1.954,1.954,1.9575,0,0,0,0,0,0,1.9842,1.9833,1.983,1.979,1.9779,1.9747,1.9726,1.9718,1.9702,1.9699,1.9658,1.9651,1.9625,1.9601,1.9594,1.9595,1.9581,1.9539,1.9539,1.954,1.9574,1.9577,1.958,0,0,0,0,0,1.9845,1.9842,1.983,1.9822,1.9774,1.9747,1.974,1.9711,1.9703,1.9699,1.9673,1.9653,1.96,1.9599,1.9591,1.9591,1.9539,1.9539,1.954,1.9573,1.9576,1.958,0,0,0,0,0,0,1.9882,1.9836,1.9822,1.9806,1.9781,1.974,1.9734,1.9716,1.9692,1.969,1.9654,1.9645,1.9627,1.9607,1.9607,1.958,1.9567,1.9566,1.9594,1.9597,1.96,1.9605,1.9579,0,0,0,0,0,1.9889,1.9872,1.9832,1.9821,1.9809,1.9774,1.9761,1.9741,1.9713,1.9702,1.9674,1.9647,1.9624,1.9609,1.9586,1.9571,1.9561,1.9567,1.957,1.9572,1.9572,1.9562,1.9564,1.9542,1.9542,1.9542,0,0,1.9901,1.9874,1.9865,1.9828,1.9806,1.9788,1.9765,1.9747,1.9733,1.9699,1.9677,1.9656,1.9623,1.9605,1.9595,1.9587,1.9576,1.9573,1.9575,1.9573,1.9563,1.9565,1.9567,1.9543,1.9543,1.9543,0,0,1.9916,1.9894,1.9882,1.9861,1.9829,1.9805,1.9803,1.9765,1.9749,1.9727,1.9701,1.9683,1.9645,1.9622,1.9606,1.9612,1.9592,1.9605,1.962,1.9611,1.9612,1.9614,1.9616,1.9617,1.9605,1.9605,1.9605,0,1.9935,1.9908,1.9879,1.9862,1.9846,1.9815,1.9803,1.9783,1.9745,1.9734,1.9726,1.9677,1.9653,1.9629,1.963,1.9618,1.9613,1.961,1.9615,1.9616,1.9617,1.9618,1.9619,1.9607,1.9607,1.9606,1.9606,0,1.9934,1.9916,1.991,1.9875,1.9858,1.9844,1.9811,1.9798,1.9779,1.9756,1.9734,1.9704,1.9674,1.9667,1.9648,1.964,1.9636,1.9622,1.9608,1.9621,1.9622,1.9622,1.9609,1.9609,1.9608,1.9608,0,0,1.9969,1.9918,1.9917,1.99,1.9862,1.9847,1.9831,1.9803,1.9792,1.9766,1.9751,1.972,1.9706,1.9688,1.9666,1.9658,1.9665,1.9645,1.9643,1.9649,1.9654,1.9665,1.9666,1.9652,1.9652,1.9651,1.9656,0,1.9978,1.9949,1.9922,1.9902,1.9885,1.9855,1.9841,1.9816,1.9794,1.9775,1.975,1.9729,1.9713,1.9702,1.9692,1.9666,1.9665,1.9665,1.9637,1.9636,1.9646,1.9666,1.9677,1.9684,1.9656,1.9657,1.9657,0,1.9984,1.9961,1.994,1.9904,1.9895,1.9884,1.9855,1.9838,1.9808,1.9793,1.9773,1.975,1.9731,1.9719,1.9692,1.9692,1.9679,1.9664,1.9664,1.966,1.9647,1.9663,1.9685,1.9686,1.9657,1.9657,1.9657,0,2.0012,1.9975,1.9958,1.9945,1.9902,1.9895,1.9876,1.9846,1.9831,1.9806,1.9796,1.9769,1.9754,1.9733,1.9703,1.9697,1.9679,1.9664,1.9665,1.9666,1.9662,1.9663,1.9683,1.9654,1.9654,1.9654,1.9654,0,2.0024,2.0012,1.997,1.996,1.9946,1.9914,1.99,1.9879,1.9853,1.9837,1.9809,1.9794,1.9756,1.9737,1.9713,1.9694,1.9687,1.9674,1.9668,1.9677,1.9678,1.9667,1.9666,1.9654,1.9654,1.9654,1.9654,0,2.0053,2.0024,2.0003,1.9965,1.9955,1.9947,1.9913,1.9901,1.9878,1.9858,1.9852,1.9815,1.9791,1.9759,1.9725,1.9709,1.9693,1.9683,1.9703,1.9699,1.9702,1.9702,1.9715,1.9715,1.9687,1.9687,1.9688,0,2.0062,2.0053,2.0014,2.0002,1.9985,1.9966,1.995,1.9919,1.9903,1.9869,1.9861,1.9835,1.9813,1.9775,1.9745,1.9718,1.9708,1.9714,1.9703,1.9712,1.9708,1.9709,1.9707,1.9717,1.9717,1.9718,1.9718,0,2.0083,2.0069,2.0049,2.0023,2.0006,1.9984,1.9961,1.9952,1.9915,1.99,1.9875,1.9858,1.9823,1.9797,1.9767,1.9747,1.9726,1.9722,1.972,1.9729,1.9741,1.9735,1.971,1.9721,1.9721,1.9721,1.9721,1.972,2.0102,2.0092,2.0064,2.0042,2.0021,2.0,1.9987,1.9963,1.9943,1.9913,1.9895,1.9871,1.9841,1.9798,1.9779,1.9759,1.9751,1.9749,1.9749,1.9749,1.9752,1.9745,1.9753,1.9753,1.9753,1.9753,1.9753,0,2.0121,2.0101,2.0081,2.005,2.0033,2.0016,1.999,1.9976,1.9956,1.993,1.9909,1.9881,1.9855,1.9823,1.9796,1.9786,1.9776,1.978,1.978,1.9776,1.976,1.9764,1.9789,1.9789,1.9789,1.9789,1.9789,1.9789,2.0129,2.0112,2.0095,2.0067,2.0046,2.0024,2.001,1.999,1.997,1.994,1.9919,1.9899,1.9871,1.9841,1.9817,1.9808,1.9799,1.9806,1.9794,1.978,1.9777,1.9774,1.9777,1.9804,1.9804,1.9811,1.9811,1.9811]}]]